Вернуться в каталог

IRIDIUM 33 DEB

АктивенPO
NORAD 34366·DEBRIS·🇺🇸 United States

Запущен Sep 14, 1997 с Baikonur Cosmodrome

Loading…

Ближайшие Пролёты (ближайшие 24 часа)

TLE

СвежийSource: Space-Track

Эпоха: Sep 14, 2026, 00:58 UTC

1 34366U 97051FJ  26257.04039225  .00002536  00000-0  56671-3 0  9995
2 34366  86.3644 289.3214 0017115 295.3028  91.5889 14.56342814921862

Отслеживайте IRIDIUM 33 DEB в реальном времени с AllMySat

Download on the App Store